Weather in Borova

Ukraine / Kharkiv Region     49°47′43″N   36°18′17″E
temp.,
°C
wind,
m/s
gust,
m/s
humid.,
%
clouds,
%
prec.,
mm/h
press.,
hPa
HPBL,
m
24 january, sun
sun2423:00+2sse499797 0.0 1017222
02:00+3sse499798 0.0 1016266
05:00+3s51197100 0.0 1015316
08:00+3sse51295100 0.0 1015311
11:00+4s51190100 0.0 1016353
14:00+4sse51184100 0.0 1015356
17:00+3se51379100 0.0 1015296
20:00+2se61377100 0.0 1015360
25 january, mon
mon2523:00+1se6128398 0.0 1015364
02:00+1se5128599 0.0 1014386
05:00+1se51093100 0.8 1013345
08:00+2sse61195100 1.4 1013358
11:00+3sse61196100 0.1 1013444
14:00+5se51194100 0.1 1011398
17:00+3se5129279 0.0 1011343
20:00+3se6139090 0.3 1010443
26 january, tue
tue2623:00+3se81878100 0.0 1008577
02:00+3se91769100 0.0 1005674
05:00+3sse71493100 3.1 1005552
08:00+2ssw6138772 3.3 1008567
11:00+4ssw7127249 0.0 1010772
14:00+5sse487574 0.0 1009488
17:00+3se51484100 0.0 1009515
20:00+6s61691100 0.5 1007659
27 january, wed
wed2723:00+6sse71591100 4.3 1007593
02:00+5s51193100 4.4 1008376
05:00+4se2499100 2.1 1007143
08:00+4ese3992100 5.0 1005428
11:00+4se51490100 2.1 1004596
14:00+6se71578100 3.4 1001690
17:00+6se81673100 0.1 1001638
20:00+4se81680100 0.3 1001688
28 january, thu
thu2823:00+4se71383100 0.7 1001528
02:00+4se61191100 1.8 1000406
05:00+3se61386100 0.4 999511
08:00+3sse61189100 0.4 1000447
11:00+4s5883100 0.0 1001633
14:00+4sse5986100 0.1 1001648
17:00+2ssw5797100 0.4 1002393
20:000sw6996100 1.4 1002554